| time (UTC) | temp F | wind direction | speed MPH | gust MPH | rain 1hr in | rain 24hr in | rain mn in | humidity % | barometer mb |
| 20260903161722 | 92 | 182 | 3.0 | 7.0 | 0.00 | 0.00 | 0.00 | 69 | 1013.5 |
| 20260903161220 | 92 | 209 | 3.0 | 7.0 | 0.00 | 0.00 | 0.00 | 69 | 1013.5 |
| 20260903160722 | 92 | 166 | 3.0 | 7.0 | 0.00 | 0.00 | 0.00 | 69 | 1013.5 |
| 20260903160215 | 92 | 198 | 3.0 | 7.0 | 0.00 | 0.00 | 0.00 | 67 | 1013.4 |
| 20260903155708 | 92 | 223 | 3.0 | 6.0 | 0.00 | 0.00 | 0.00 | 68 | 1013.4 |
| 20260903155151 | 92 | 210 | 3.0 | 6.0 | 0.00 | 0.00 | 0.00 | 67 | 1013.5 |
| 20260903154635 | 92 | 222 | 3.0 | 6.0 | 0.00 | 0.00 | 0.00 | 68 | 1013.6 |
| 20260903154139 | 92 | 234 | 3.0 | 6.0 | 0.00 | 0.00 | 0.00 | 69 | 1013.6 |
| 20260903153617 | 91 | 213 | 3.0 | 8.0 | 0.00 | 0.00 | 0.00 | 70 | 1013.7 |
| 20260903153113 | 91 | 221 | 3.0 | 8.0 | 0.00 | 0.00 | 0.00 | 70 | 1013.7 |
| 20260903152554 | 90 | 233 | 3.0 | 8.0 | 0.00 | 0.00 | 0.00 | 71 | 1013.6 |
| 20260903151415 | 90 | 235 | 3.0 | 7.0 | 0.00 | 0.00 | 0.00 | 71 | 1013.5 |
| 20260903150909 | 89 | 204 | 3.0 | 6.0 | 0.00 | 0.00 | 0.00 | 72 | 1013.5 |
| 20260903144448 | 89 | 205 | 3.0 | 10.0 | 0.00 | 0.00 | 0.00 | 73 | 1013.3 |
| 20260903143944 | 88 | 209 | 3.0 | 10.0 | 0.00 | 0.00 | 0.00 | 72 | 1013.3 |
| 20260903142835 | 88 | 225 | 4.0 | 10.0 | 0.00 | 0.00 | 0.00 | 73 | 1013.5 |
| 20260903142332 | 88 | 214 | 4.0 | 8.0 | 0.00 | 0.00 | 0.00 | 73 | 1013.5 |
| 20260903141815 | 88 | 236 | 2.0 | 8.0 | 0.00 | 0.00 | 0.00 | 74 | 1013.6 |
| 20260903141320 | 88 | 246 | 1.0 | 3.0 | 0.00 | 0.00 | 0.00 | 74 | 1013.5 |
| 20260903140809 | 88 | 248 | 1.0 | 3.0 | 0.00 | 0.00 | 0.00 | 74 | 1013.6 |
| 20260903140304 | 88 | 225 | 1.0 | 3.0 | 0.00 | 0.00 | 0.00 | 74 | 1013.7 |
| 20260903135107 | 88 | 281 | 2.0 | 6.0 | 0.00 | 0.00 | 0.00 | 74 | 1013.6 |
| 20260903134552 | 88 | 231 | 3.0 | 6.0 | 0.00 | 0.00 | 0.00 | 74 | 1013.5 |
| 20260903134041 | 88 | 233 | 4.0 | 10.0 | 0.00 | 0.00 | 0.00 | 73 | 1013.5 |
| 20260903133542 | 88 | 237 | 5.0 | 10.0 | 0.00 | 0.00 | 0.00 | 74 | 1013.5 |
| 20260903133043 | 88 | 246 | 5.0 | 10.0 | 0.00 | 0.00 | 0.00 | 74 | 1013.4 |
| 20260903132524 | 88 | 226 | 4.0 | 9.0 | 0.00 | 0.00 | 0.00 | 74 | 1013.4 |
| 20260903131359 | 88 | 237 | 3.0 | 11.0 | 0.00 | 0.00 | 0.00 | 74 | 1013.5 |
| 20260903130228 | 88 | 265 | 4.0 | 11.0 | 0.00 | 0.00 | 0.00 | 74 | 1013.4 |
| 20260903125714 | 88 | 261 | 6.0 | 11.0 | 0.00 | 0.00 | 0.00 | 75 | 1013.3 |
| 20260903125151 | 88 | 219 | 6.0 | 9.0 | 0.00 | 0.00 | 0.00 | 74 | 1013.2 |
| 20260903124530 | 88 | 211 | 5.0 | 14.0 | 0.00 | 0.00 | 0.00 | 74 | 1013.2 |
| 20260903123409 | 87 | 213 | 7.0 | 14.0 | 0.00 | 0.00 | 0.00 | 73 | 1013.2 |
| 20260903122906 | 88 | 206 | 7.0 | 14.0 | 0.00 | 0.00 | 0.00 | 76 | 1013.0 |
| 20260903122405 | 87 | 213 | 5.0 | 12.0 | 0.00 | 0.00 | 0.00 | 76 | 1013.0 |
| 20260903121847 | 87 | 210 | 3.0 | 10.0 | 0.00 | 0.00 | 0.00 | 75 | 1013.1 |
| 20260903120709 | 86 | 269 | 2.0 | 5.0 | 0.00 | 0.00 | 0.00 | 72 | 1013.2 |
| 20260903120207 | 86 | 255 | 2.0 | 11.0 | 0.00 | 0.00 | 0.00 | 72 | 1013.1 |
| 20260903115703 | 86 | 246 | 3.0 | 11.0 | 0.00 | 0.00 | 0.00 | 71 | 1013.1 |
| 20260903115205 | 86 | 242 | 3.0 | 17.0 | 0.00 | 0.00 | 0.00 | 72 | 1013.0 |
| 20260903114645 | 87 | 275 | 5.0 | 17.0 | 0.00 | 0.00 | 0.00 | 73 | 1012.9 |
| 20260903113509 | 88 | 209 | 8.0 | 17.0 | 0.00 | 0.05 | 0.00 | 75 | 1012.7 |
| 20260903113008 | 88 | 205 | 8.0 | 15.0 | 0.00 | 0.07 | 0.00 | 75 | 1012.7 |
| 20260903112507 | 88 | 194 | 8.0 | 14.0 | 0.00 | 0.07 | 0.00 | 75 | 1012.6 |
| 20260903111953 | 88 | 204 | 9.0 | 14.0 | 0.00 | 0.07 | 0.00 | 75 | 1012.7 |
| 20260903110818 | 88 | 196 | 10.0 | 14.0 | 0.00 | 0.07 | 0.00 | 74 | 1012.5 |
| 20260903110304 | 87 | 178 | 8.0 | 12.0 | 0.00 | 0.07 | 0.00 | 75 | 1012.5 |
| 20260903105749 | 88 | 208 | 7.0 | 11.0 | 0.00 | 0.07 | 0.00 | 76 | 1012.5 |
| 20260903105238 | 88 | 201 | 7.0 | 12.0 | 0.00 | 0.07 | 0.00 | 77 | 1012.5 |
| 20260903104746 | 88 | 185 | 7.0 | 12.0 | 0.00 | 0.07 | 0.00 | 77 | 1012.4 |
| 20260903104244 | 88 | 188 | 7.0 | 14.0 | 0.00 | 0.07 | 0.00 | 76 | 1012.4 |
| 20260903103740 | 88 | 217 | 8.0 | 14.0 | 0.00 | 0.07 | 0.00 | 76 | 1012.4 |
| 20260903103232 | 88 | 223 | 8.0 | 14.0 | 0.00 | 0.07 | 0.00 | 76 | 1012.4 |
| 20260903102739 | 88 | 197 | 8.0 | 14.0 | 0.00 | 0.07 | 0.00 | 76 | 1012.4 |
| 20260903102238 | 88 | 176 | 8.0 | 14.0 | 0.00 | 0.07 | 0.00 | 76 | 1012.4 |
| 20260903101717 | 88 | 2 | 8.0 | 14.0 | 0.00 | 0.07 | 0.00 | 76 | 1012.4 |
| 20260903101216 | 88 | 207 | 8.0 | 13.0 | 0.00 | 0.07 | 0.00 | 76 | 1012.3 |
| 20260903100702 | 88 | 192 | 8.0 | 15.0 | 0.00 | 0.07 | 0.00 | 76 | 1012.3 |
| 20260903100143 | 88 | 180 | 9.0 | 15.0 | 0.00 | 0.07 | 0.00 | 75 | 1012.3 |
| 20260903095646 | 88 | 195 | 9.0 | 15.0 | 0.00 | 0.07 | 0.00 | 75 | 1012.3 |
| 20260903095143 | 88 | 198 | 9.0 | 15.0 | 0.00 | 0.07 | 0.00 | 75 | 1012.2 |
| 20260903094637 | 88 | 204 | 9.0 | 16.0 | 0.00 | 0.07 | 0.00 | 75 | 1012.3 |
| 20260903094129 | 88 | 201 | 9.0 | 16.0 | 0.00 | 0.07 | 0.00 | 75 | 1012.3 |
| 20260903093612 | 87 | 206 | 10.0 | 16.0 | 0.00 | 0.07 | 0.00 | 75 | 1012.3 |
| 20260903093113 | 87 | 170 | 9.0 | 14.0 | 0.00 | 0.07 | 0.00 | 76 | 1012.3 |
| 20260903091945 | 88 | 214 | 10.0 | 14.0 | 0.00 | 0.07 | 0.00 | 77 | 1012.3 |
| 20260903091449 | 88 | 2 | 10.0 | 15.0 | 0.00 | 0.07 | 0.00 | 77 | 1012.2 |
| 20260903090937 | 88 | 174 | 11.0 | 15.0 | 0.00 | 0.07 | 0.00 | 77 | 1012.2 |
| 20260903085806 | 88 | 195 | 12.0 | 17.0 | 0.00 | 0.07 | 0.00 | 77 | 1012.3 |
| 20260903085313 | 88 | 198 | 12.0 | 17.0 | 0.00 | 0.07 | 0.00 | 77 | 1012.3 |
| 20260903084159 | 88 | 193 | 11.0 | 17.0 | 0.00 | 0.07 | 0.00 | 78 | 1012.2 |
| 20260903083655 | 88 | 209 | 11.0 | 17.0 | 0.00 | 0.07 | 0.00 | 77 | 1012.3 |
| 20260903083150 | 88 | 173 | 11.0 | 17.0 | 0.00 | 0.07 | 0.00 | 77 | 1012.3 |
| 20260903082630 | 88 | 2 | 12.0 | 17.0 | 0.00 | 0.07 | 0.00 | 77 | 1012.4 |
| 20260903082131 | 88 | 189 | 12.0 | 17.0 | 0.00 | 0.07 | 0.00 | 77 | 1012.3 |
| 20260903081633 | 88 | 188 | 12.0 | 16.0 | 0.00 | 0.07 | 0.00 | 77 | 1012.3 |
| 20260903081113 | 88 | 189 | 12.0 | 16.0 | 0.00 | 0.07 | 0.00 | 77 | 1012.3 |
| 20260903080612 | 88 | 201 | 12.0 | 16.0 | 0.00 | 0.07 | 0.00 | 77 | 1012.3 |
| 20260903080056 | 88 | 193 | 12.0 | 16.0 | 0.00 | 0.07 | 0.00 | 77 | 1012.2 |
| 20260903075537 | 88 | 185 | 11.0 | 16.0 | 0.00 | 0.07 | 0.00 | 77 | 1012.3 |
| 20260903075028 | 88 | 186 | 12.0 | 18.0 | 0.00 | 0.07 | 0.00 | 77 | 1012.3 |
| 20260903074525 | 88 | 2 | 12.0 | 18.0 | 0.00 | 0.07 | 0.00 | 77 | 1012.2 |
| 20260903074003 | 88 | 184 | 12.0 | 18.0 | 0.00 | 0.07 | 0.00 | 77 | 1012.2 |
| 20260903073443 | 88 | 205 | 12.0 | 18.0 | 0.00 | 0.07 | 0.00 | 77 | 1012.2 |
| 20260903072944 | 88 | 175 | 12.0 | 16.0 | 0.00 | 0.07 | 0.00 | 76 | 1012.2 |
| 20260903072440 | 88 | 202 | 12.0 | 16.0 | 0.00 | 0.07 | 0.00 | 76 | 1012.2 |
| 20260903071919 | 88 | 2 | 11.0 | 16.0 | 0.00 | 0.07 | 0.00 | 76 | 1012.3 |
| 20260903071415 | 88 | 193 | 11.0 | 16.0 | 0.00 | 0.07 | 0.00 | 76 | 1012.4 |
| 20260903070246 | 88 | 2 | 11.0 | 16.0 | 0.00 | 0.07 | 0.00 | 76 | 1012.6 |
| 20260903064445 | 88 | 180 | 11.0 | 16.0 | 0.00 | 0.07 | 0.00 | 76 | 1012.7 |
| 20260903063308 | 88 | 188 | 10.0 | 16.0 | 0.00 | 0.07 | 0.00 | 76 | 1012.7 |
| 20260903062805 | 88 | 194 | 11.0 | 16.0 | 0.00 | 0.07 | 0.00 | 76 | 1012.9 |
| 20260903061615 | 88 | 196 | 11.0 | 16.0 | 0.00 | 0.07 | 0.00 | 76 | 1012.9 |
| 20260903060510 | 88 | 194 | 12.0 | 16.0 | 0.00 | 0.07 | 0.00 | 76 | 1013.3 |
| 20260903055952 | 88 | 190 | 12.0 | 18.0 | 0.00 | 0.07 | 0.00 | 77 | 1013.4 |
| 20260903055433 | 88 | 188 | 12.0 | 18.0 | 0.00 | 0.07 | 0.00 | 77 | 1013.5 |
| 20260903054915 | 88 | 181 | 13.0 | 18.0 | 0.00 | 0.07 | 0.00 | 78 | 1013.4 |
| 20260903054418 | 88 | 197 | 13.0 | 18.0 | 0.00 | 0.07 | 0.00 | 77 | 1013.4 |
| 20260903053921 | 88 | 198 | 13.0 | 17.0 | 0.00 | 0.07 | 0.00 | 77 | 1013.3 |
| 20260903053419 | 88 | 180 | 13.0 | 18.0 | 0.00 | 0.07 | 0.00 | 77 | 1013.3 |
| 20260903052906 | 88 | 195 | 13.0 | 18.0 | 0.00 | 0.07 | 0.00 | 77 | 1013.4 |
| 20260903052402 | 88 | 194 | 14.0 | 18.0 | 0.00 | 0.07 | 0.00 | 76 | 1013.3 |
| 20260903050018 | 88 | 205 | 14.0 | 19.0 | 0.00 | 0.07 | 0.00 | 77 | 1013.1 |
| 20260903045522 | 88 | 182 | 14.0 | 19.0 | 0.00 | 0.07 | 0.07 | 77 | 1013.2 |
| 20260903043126 | 88 | 185 | 14.0 | 19.0 | 0.00 | 0.07 | 0.07 | 77 | 1013.3 |
| 20260903042609 | 88 | 190 | 14.0 | 18.0 | 0.00 | 0.07 | 0.07 | 77 | 1013.2 |
| 20260903040801 | 89 | 181 | 11.0 | 17.0 | 0.00 | 0.07 | 0.07 | 76 | 1013.6 |
| 20260903040251 | 89 | 174 | 11.0 | 17.0 | 0.00 | 0.07 | 0.07 | 76 | 1013.5 |
| 20260903035736 | 88 | 184 | 12.0 | 17.0 | 0.00 | 0.07 | 0.07 | 75 | 1013.5 |
| 20260903034608 | 88 | 174 | 11.0 | 15.0 | 0.00 | 0.07 | 0.07 | 76 | 1013.4 |
| 20260903034058 | 88 | 183 | 12.0 | 15.0 | 0.00 | 0.07 | 0.07 | 76 | 1013.4 |
| 20260903033542 | 88 | 182 | 11.0 | 15.0 | 0.00 | 0.07 | 0.07 | 75 | 1013.3 |
| 20260903032406 | 88 | 194 | 12.0 | 15.0 | 0.00 | 0.07 | 0.07 | 75 | 1013.0 |
| 20260903031850 | 89 | 180 | 11.0 | 16.0 | 0.00 | 0.07 | 0.07 | 76 | 1013.0 |
| 20260903030656 | 89 | 172 | 13.0 | 18.0 | 0.00 | 0.07 | 0.07 | 75 | 1012.9 |
| 20260903030157 | 88 | 188 | 13.0 | 18.0 | 0.00 | 0.07 | 0.07 | 74 | 1012.9 |
| 20260903025017 | 88 | 186 | 14.0 | 18.0 | 0.00 | 0.07 | 0.07 | 73 | 1012.9 |
| 20260903024510 | 88 | 186 | 13.0 | 18.0 | 0.00 | 0.07 | 0.07 | 74 | 1012.9 |
| 20260903023957 | 88 | 182 | 13.0 | 17.0 | 0.00 | 0.07 | 0.07 | 73 | 1012.9 |
| 20260903022814 | 88 | 165 | 12.0 | 16.0 | 0.00 | 0.07 | 0.07 | 74 | 1012.9 |
| 20260903021630 | 88 | 202 | 11.0 | 16.0 | 0.00 | 0.07 | 0.07 | 75 | 1012.8 |
| 20260903021118 | 88 | 180 | 11.0 | 16.0 | 0.00 | 0.07 | 0.07 | 75 | 1012.8 |
| 20260903015936 | 88 | 199 | 10.0 | 15.0 | 0.00 | 0.07 | 0.07 | 76 | 1012.8 |
| 20260903014750 | 88 | 188 | 10.0 | 15.0 | 0.00 | 0.07 | 0.07 | 75 | 1012.5 |
| 20260903014241 | 88 | 200 | 10.0 | 15.0 | 0.00 | 0.07 | 0.07 | 75 | 1012.4 |
| 20260903013736 | 88 | 180 | 10.0 | 15.0 | 0.00 | 0.07 | 0.07 | 75 | 1012.4 |
| 20260903013218 | 88 | 177 | 11.0 | 15.0 | 0.00 | 0.07 | 0.07 | 75 | 1012.3 |
| 20260903012708 | 88 | 191 | 12.0 | 15.0 | 0.00 | 0.07 | 0.07 | 74 | 1012.3 |
| 20260903012214 | 88 | 200 | 12.0 | 15.0 | 0.00 | 0.07 | 0.07 | 75 | 1012.0 |
| 20260903011711 | 88 | 198 | 11.0 | 15.0 | 0.00 | 0.07 | 0.07 | 75 | 1012.0 |
| 20260903011208 | 88 | 180 | 11.0 | 14.0 | 0.00 | 0.07 | 0.07 | 75 | 1012.2 |
| 20260903010712 | 88 | 209 | 11.0 | 14.0 | 0.00 | 0.07 | 0.07 | 76 | 1012.2 |
| 20260903010211 | 88 | 186 | 10.0 | 14.0 | 0.00 | 0.07 | 0.07 | 76 | 1012.3 |
| 20260903005702 | 88 | 175 | 10.0 | 13.0 | 0.00 | 0.07 | 0.07 | 76 | 1012.4 |
| 20260903005209 | 88 | 187 | 10.0 | 15.0 | 0.00 | 0.07 | 0.07 | 76 | 1012.5 |
| 20260903004656 | 88 | 157 | 10.0 | 15.0 | 0.00 | 0.07 | 0.07 | 76 | 1012.3 |
| 20260903004150 | 88 | 192 | 10.0 | 15.0 | 0.00 | 0.07 | 0.07 | 75 | 1012.0 |
| 20260903003657 | 88 | 177 | 11.0 | 15.0 | 0.00 | 0.07 | 0.07 | 76 | 1011.9 |
| 20260903002529 | 88 | 174 | 11.0 | 16.0 | 0.00 | 0.07 | 0.07 | 76 | 1011.4 |
| 20260903001411 | 88 | 169 | 10.0 | 16.0 | 0.00 | 0.07 | 0.07 | 76 | 1011.3 |
| 20260903000849 | 88 | 190 | 10.0 | 14.0 | 0.00 | 0.07 | 0.07 | 76 | 1011.5 |
| 20260902235717 | 89 | 196 | 9.0 | 12.0 | 0.00 | 0.07 | 0.07 | 76 | 1011.7 |
| 20260902235213 | 89 | 191 | 9.0 | 14.0 | 0.00 | 0.07 | 0.07 | 76 | 1011.8 |
| 20260902234720 | 89 | 188 | 9.0 | 14.0 | 0.00 | 0.07 | 0.07 | 75 | 1011.9 |
| 20260902234200 | 89 | 181 | 9.0 | 14.0 | 0.00 | 0.07 | 0.07 | 76 | 1011.9 |
| 20260902233700 | 89 | 194 | 9.0 | 14.0 | 0.00 | 0.07 | 0.07 | 76 | 1011.8 |
| 20260902233140 | 89 | 177 | 9.0 | 13.0 | 0.00 | 0.07 | 0.07 | 76 | 1011.9 |
| 20260902232645 | 89 | 188 | 9.0 | 13.0 | 0.00 | 0.07 | 0.07 | 76 | 1011.8 |
| 20260902231510 | 89 | 181 | 9.0 | 13.0 | 0.00 | 0.07 | 0.07 | 75 | 1011.7 |
| 20260902230954 | 89 | 196 | 9.0 | 13.0 | 0.00 | 0.07 | 0.07 | 75 | 1011.9 |
| 20260902230449 | 89 | 193 | 9.0 | 13.0 | 0.00 | 0.07 | 0.07 | 76 | 1011.9 |
| 20260902225939 | 89 | 192 | 9.0 | 13.0 | 0.00 | 0.07 | 0.07 | 75 | 1011.9 |
| 20260902225426 | 89 | 192 | 9.0 | 13.0 | 0.00 | 0.07 | 0.07 | 75 | 1011.9 |
| 20260902224928 | 89 | 198 | 9.0 | 13.0 | 0.00 | 0.07 | 0.07 | 76 | 1012.0 |
| 20260902224432 | 89 | 183 | 9.0 | 13.0 | 0.00 | 0.07 | 0.07 | 76 | 1012.0 |
| 20260902223910 | 89 | 195 | 9.0 | 12.0 | 0.00 | 0.07 | 0.07 | 75 | 1011.9 |
| 20260902222743 | 89 | 193 | 9.0 | 12.0 | 0.00 | 0.07 | 0.07 | 75 | 1011.8 |
| 20260902222247 | 89 | 181 | 8.0 | 13.0 | 0.00 | 0.07 | 0.07 | 74 | 1011.8 |
| 20260902221731 | 89 | 197 | 8.0 | 13.0 | 0.00 | 0.07 | 0.07 | 76 | 1011.8 |
| 20260902221230 | 89 | 197 | 9.0 | 13.0 | 0.00 | 0.07 | 0.07 | 76 | 1011.9 |
| 20260902220726 | 89 | 193 | 10.0 | 13.0 | 0.00 | 0.07 | 0.07 | 75 | 1012.1 |
| 20260902220221 | 90 | 166 | 9.0 | 13.0 | 0.00 | 0.07 | 0.07 | 74 | 1012.1 |
| 20260902215043 | 90 | 202 | 8.0 | 12.0 | 0.00 | 0.07 | 0.07 | 73 | 1012.3 |
| 20260902213858 | 91 | 185 | 8.0 | 17.0 | 0.00 | 0.07 | 0.07 | 73 | 1012.1 |
| 20260902213335 | 91 | 212 | 9.0 | 17.0 | 0.00 | 0.07 | 0.07 | 72 | 1012.1 |
| 20260902212840 | 91 | 197 | 9.0 | 17.0 | 0.00 | 0.07 | 0.07 | 72 | 1012.2 |
| 20260902211037 | 91 | 219 | 8.0 | 15.0 | 0.00 | 0.07 | 0.07 | 73 | 1012.2 |
| 20260902205927 | 91 | 204 | 9.0 | 18.0 | 0.00 | 0.07 | 0.07 | 73 | 1012.4 |
| 20260902204807 | 91 | 218 | 10.0 | 18.0 | 0.00 | 0.07 | 0.07 | 73 | 1012.4 |
| 20260902204249 | 90 | 200 | 10.0 | 18.0 | 0.00 | 0.07 | 0.07 | 73 | 1012.3 |
| 20260902203728 | 90 | 213 | 10.0 | 19.0 | 0.00 | 0.07 | 0.07 | 73 | 1012.3 |
| 20260902203226 | 90 | 221 | 10.0 | 19.0 | 0.00 | 0.07 | 0.07 | 73 | 1012.3 |
| 20260902202729 | 90 | 171 | 11.0 | 19.0 | 0.00 | 0.07 | 0.07 | 74 | 1012.5 |
| 20260902202225 | 90 | 218 | 12.0 | 19.0 | 0.00 | 0.07 | 0.07 | 72 | 1012.7 |
| 20260902201717 | 91 | 222 | 11.0 | 18.0 | 0.00 | 0.07 | 0.07 | 73 | 1012.7 |
| 20260902201223 | 91 | 219 | 10.0 | 17.0 | 0.00 | 0.07 | 0.07 | 72 | 1012.7 |
| 20260902200731 | 91 | 240 | 10.0 | 17.0 | 0.00 | 0.07 | 0.07 | 72 | 1012.8 |
| 20260902200238 | 91 | 219 | 10.0 | 19.0 | 0.00 | 0.07 | 0.07 | 72 | 1012.8 |
| 20260902195738 | 91 | 221 | 11.0 | 19.0 | 0.00 | 0.07 | 0.07 | 72 | 1012.9 |
| 20260902194601 | 91 | 221 | 11.0 | 19.0 | 0.00 | 0.07 | 0.07 | 71 | 1013.1 |
| 20260902193445 | 91 | 202 | 11.0 | 19.0 | 0.00 | 0.07 | 0.07 | 71 | 1013.1 |
| 20260902192931 | 91 | 200 | 11.0 | 19.0 | 0.00 | 0.07 | 0.07 | 71 | 1013.1 |
| 20260902191144 | 90 | 188 | 10.0 | 18.0 | 0.00 | 0.07 | 0.07 | 71 | 1013.2 |
| 20260902190650 | 90 | 211 | 10.0 | 18.0 | 0.00 | 0.07 | 0.07 | 71 | 1013.3 |
| 20260902190134 | 91 | 200 | 10.0 | 18.0 | 0.00 | 0.07 | 0.07 | 71 | 1013.3 |
| 20260902185618 | 91 | 217 | 10.0 | 18.0 | 0.00 | 0.07 | 0.07 | 71 | 1013.4 |
| 20260902184427 | 91 | 202 | 9.0 | 18.0 | 0.00 | 0.07 | 0.07 | 70 | 1013.4 |
| 20260902183917 | 91 | 214 | 8.0 | 16.0 | 0.00 | 0.07 | 0.07 | 70 | 1013.4 |
| 20260902183412 | 91 | 219 | 8.0 | 16.0 | 0.00 | 0.07 | 0.07 | 70 | 1013.5 |
| 20260902182901 | 91 | 224 | 9.0 | 17.0 | 0.00 | 0.07 | 0.07 | 71 | 1013.7 |
| 20260902182341 | 92 | 223 | 9.0 | 17.0 | 0.00 | 0.07 | 0.07 | 71 | 1013.6 |
| 20260902181822 | 92 | 216 | 8.0 | 17.0 | 0.00 | 0.07 | 0.07 | 70 | 1013.5 |
| 20260902181326 | 92 | 256 | 7.0 | 17.0 | 0.00 | 0.07 | 0.07 | 70 | 1013.8 |
| 20260902180811 | 92 | 223 | 8.0 | 15.0 | 0.00 | 0.07 | 0.07 | 71 | 1013.8 |
| 20260902180257 | 92 | 225 | 8.0 | 15.0 | 0.00 | 0.07 | 0.07 | 70 | 1014.0 |
| 20260902175119 | 92 | 202 | 7.0 | 17.0 | 0.00 | 0.07 | 0.07 | 70 | 1014.2 |
| 20260902174618 | 92 | 207 | 7.0 | 17.0 | 0.00 | 0.07 | 0.07 | 69 | 1014.2 |
| 20260902174059 | 91 | 199 | 7.0 | 17.0 | 0.00 | 0.07 | 0.07 | 69 | 1014.2 |
| 20260902173557 | 91 | 220 | 7.0 | 17.0 | 0.00 | 0.07 | 0.07 | 70 | 1014.3 |
| 20260902173057 | 92 | 225 | 7.0 | 14.0 | 0.00 | 0.07 | 0.07 | 70 | 1014.4 |
| 20260902172556 | 91 | 204 | 7.0 | 14.0 | 0.00 | 0.07 | 0.07 | 70 | 1014.5 |
| 20260902172034 | 91 | 223 | 7.0 | 14.0 | 0.00 | 0.07 | 0.07 | 71 | 1014.5 |
| 20260902171516 | 91 | 215 | 6.0 | 13.0 | 0.00 | 0.07 | 0.07 | 71 | 1014.5 |
| 20260902171016 | 91 | 211 | 5.0 | 13.0 | 0.00 | 0.07 | 0.07 | 70 | 1014.4 |
| 20260902170454 | 91 | 263 | 4.0 | 13.0 | 0.00 | 0.07 | 0.07 | 70 | 1014.6 |
| 20260902165958 | 90 | 244 | 5.0 | 12.0 | 0.00 | 0.07 | 0.07 | 70 | 1014.7 |
| 20260902165441 | 90 | 274 | 6.0 | 11.0 | 0.00 | 0.07 | 0.07 | 70 | 1014.7 |
| 20260902164316 | 90 | 279 | 4.0 | 10.0 | 0.00 | 0.07 | 0.07 | 71 | 1014.8 |
| 20260902163819 | 90 | 238 | 5.0 | 10.0 | 0.00 | 0.07 | 0.07 | 71 | 1014.9 |
| 20260902163304 | 90 | 267 | 5.0 | 17.0 | 0.00 | 0.07 | 0.07 | 70 | 1014.8 |
| 20260902162137 | 90 | 229 | 5.0 | 17.0 | 0.00 | 0.07 | 0.07 | 72 | 1014.7 |